Location: Goettingen
(51.5300°N, 9.9433°E)
Time: 22:45:21
(UTC+02:00)

ISS - Pass Details

Date: 13 September 2019
Orbit: 411 x 421 km, 51.6° (Epoch: 19 September)

Event Time Altitude Azimuth Distance (km) Brightness Sun altitude
Exits shadow 05:30:39 24° 240° (WSW) 915 -2.7 -12.9°
Maximum altitude 05:31:34 27° 211° (SSW) 827 -2.7 -12.7°
Drops below altitude 10° 05:34:27 10° 151° (SSE) 1,488 -0.9 -12.3°
Sets 05:36:43 0° 139° (SE) 2,350 0.3 -12.0°
